Date,TemperatureHighF,TemperatureAvgF,TemperatureLowF,DewpointHighF,DewpointAvgF,DewpointLowF,HumidityHigh,HumidityAvg,HumidityLow,PressureMaxIn,PressureMinIn,WindSpeedMaxMPH,WindSpeedAvgMPH,GustSpeedMaxMPH,PrecipitationSumIn
2013-10-1,75.8,64.5,58.6,56.2,54.7,53.3,83,72,47,30.18,30.08,7,3,14,0.00
2013-10-2,76.0,67.8,63.2,58.6,56.8,55.3,80,69,49,30.18,30.11,9,4,21,0.00
2013-10-3,80.9,73.0,60.4,60.6,59.0,57.5,92,63,47,30.21,30.10,3,1,10,0.00
2013-10-4,81.8,72.9,66.4,61.3,60.0,58.4,80,66,45,30.19,30.10,7,4,17,0.00
2013-10-5,79.4,73.3,68.8,63.4,61.4,59.9,78,67,54,30.17,30.06,6,2,16,0.00
2013-10-6,68.1,66.3,64.5,60.2,59.3,58.5,81,78,76,30.06,30.04,1,0,3,0.00
2013-10-7,66.6,60.9,50.8,61.5,55.2,41.7,94,82,71,30.14,29.81,12,7,35,0.03
2013-10-8,63.1,54.3,48.0,44.9,41.8,39.9,78,64,44,30.40,30.21,9,2,35,0.01
2013-10-9,55.6,52.0,47.6,44.8,42.2,37.1,81,69,57,30.45,30.39,4,2,13,0.01
2013-10-10,52.6,50.1,47.1,52.1,45.7,40.3,100,86,68,30.36,30.19,3,0,9,0.00
2013-10-11,56.5,54.0,51.0,56.2,53.9,51.0,100,100,99,30.17,30.13,2,1,10,0.00
2013-10-12,59.2,56.4,54.8,59.2,56.3,54.7,100,99,94,30.30,30.14,5,2,20,0.00
2013-10-13,56.9,54.7,53.9,56.9,54.6,53.9,100,100,99,30.42,30.30,5,2,12,0.00
2013-10-14,56.2,54.9,53.5,56.2,54.9,53.5,100,100,100,30.42,30.34,2,0,10,0.00
2013-10-15,64.7,57.6,54.4,56.5,53.7,50.8,100,88,69,30.33,30.15,4,1,11,0.00
2013-10-16,66.0,57.2,50.5,56.5,52.3,49.6,99,84,68,30.15,30.00,3,1,6,0.00
2013-10-17,63.1,59.9,49.9,61.3,55.9,42.6,99,87,76,29.99,29.77,16,4,34,0.01
2013-10-18,61.0,50.9,45.2,43.9,38.0,36.6,81,62,42,30.13,29.99,10,5,24,0.01
2013-10-19,53.2,46.6,40.1,47.2,39.1,33.6,92,75,63,30.09,29.90,11,3,28,0.00
2013-10-20,57.5,47.6,39.6,34.5,32.1,29.3,77,57,35,30.20,30.05,8,5,28,0.00
2013-10-21,66.1,51.3,39.2,41.2,34.9,29.4,71,54,35,30.23,30.00,4,1,14,0.00
2013-10-22,55.0,49.4,39.6,43.8,35.7,28.4,77,60,41,30.00,29.92,10,4,21,0.00
2013-10-23,42.2,38.7,35.8,38.6,34.0,31.6,96,83,66,30.08,29.85,11,3,21,0.00
2013-10-24,40.5,36.5,33.7,31.9,28.2,24.0,89,72,57,30.28,30.07,12,7,29,0.00
2013-10-25,41.6,36.3,33.5,29.5,27.4,26.1,78,70,57,30.46,30.28,10,4,26,0.00
2013-10-26,54.5,42.3,31.6,27.6,23.5,16.0,73,50,23,30.44,30.06,18,4,35,0.00
2013-10-27,53.2,46.2,40.1,32.4,30.7,29.2,70,55,41,30.24,30.06,11,5,27,0.00
2013-10-28,59.2,47.4,34.7,39.0,34.6,31.2,87,63,46,30.38,30.23,5,1,10,0.00
2013-10-29,59.9,48.9,37.3,38.4,35.3,32.2,82,60,41,30.48,30.38,4,1,9,0.00
2013-10-30,60.4,53.7,45.8,49.8,43.3,36.1,76,68,62,30.38,30.24,1,0,5,0.00
2013-10-31,65.8,59.8,55.1,55.7,52.7,48.4,91,78,58,30.25,29.76,12,2,30,0.01